Content
SEND FEEDBACK

Daily
Averages
Monthly
Summary
United States of America

MANCHESTER CENTER, VERMONT


Home > North America > United States > Vermont
Elevation: 950 feet     Latitude: 43 10N     Longitude: 073 04W

WEATHER
 
SELECT A DAY
Number of Records: 182,401;   Date Range: 12/9/98 - 10/30/14
 
SHARE

PRINT THIS DATA

[ ← Previous Day ]
WEATHER ALMANAC - JULY 12, 2014
[ Next Day → ]
[ °C ]   °F
Weather ElementAverageHighLow
Temperature70.3 °F84 °F (3:54 pm)51.1 °F (1:54 am)
Dewpoint57.8 °F63 °F (12:54 am)48.9 °F (2:54 am)
Humidity67.3 %96 % (12:54 am)46 % (1:54 pm)
Barometer30.17 in30.24 in (2:54 am)30.08 in (6:36 am)
Wind Speed2.8 mph8.1 mph (11:54 am)
Weather ElementAverage
Visibility9.6 mi
Wind DirectionENE (61.7 °)

Weather ElementTotal
Precipitation---
Cooling Degree Days2.6 (Base 65)
Growing Degree Days17.6 (Base 50)
Averaged from 24 records on July 12, 2014
WEATHER CONDITIONS BREAKOUT
WIND DIRECTION BREAKOUT
WEATHER BY HOUR - JULY 12, 2014
[ °C ]   °F
Local TimeTemperatureDewpointHumidityBarometerVisibilityWind DirectionWind SpeedGust SpeedPrecipitationEventsConditions
12:54 AM55.0 °F52.0 °F89 %30.24 in10.0 miCalmClear
1:54 AM53.1 °F51.1 °F93 %30.23 in10.0 miCalmClear
2:54 AM53.1 °F51.1 °F93 %30.23 in10.0 miCalmClear
3:54 AM51.1 °F50.0 °F96 %30.22 in7.0 miCalmClear
4:54 AM51.1 °F48.9 °F92 %30.23 in10.0 miCalmClear
5:54 AM51.1 °F50.0 °F96 %30.23 in7.0 miCalmClear
6:54 AM57.0 °F54.0 °F89 %30.22 in10.0 miCalmPartly Cloudy
7:54 AM63.0 °F55.9 °F78 %30.23 in10.0 miCalmClear
8:54 AM69.1 °F59.0 °F70 %30.22 in10.0 miCalmPartly Cloudy
9:54 AM73.9 °F60.1 °F62 %30.21 in10.0 miCalmClear
10:54 AM77.0 °F60.1 °F56 %30.20 in10.0 miSSW (200°)4.6 mphMostly Cloudy
11:54 AM80.1 °F62.1 °F54 %30.19 in10.0 miCalmPartly Cloudy
12:54 PM81.0 °F62.1 °F52 %30.18 in10.0 miNW (310°)5.8 mphMostly Cloudy
1:54 PM82.0 °F63.0 °F52 %30.16 in10.0 miSSW (210°)4.6 mphPartly Cloudy
2:54 PM82.9 °F62.1 °F49 %30.15 in10.0 miVariable6.9 mphScattered Clouds
3:54 PM84.0 °F62.1 °F47 %30.14 in10.0 miCalmMostly Cloudy
4:54 PM82.9 °F60.1 °F46 %30.12 in10.0 miSSW (200°)8.1 mphClear
5:54 PM82.0 °F61.0 °F49 %30.10 in10.0 miSouth (190°)6.9 mphClear
6:54 PM80.1 °F59.0 °F48 %30.10 in10.0 miVariable4.6 mphClear
7:54 PM77.0 °F60.1 °F56 %30.10 in10.0 miSouth (170°)4.6 mphScattered Clouds
8:54 PM75.9 °F61.0 °F60 %30.09 in7.0 miVariable5.8 mphPartly Cloudy
9:54 PM73.9 °F61.0 °F64 %30.09 in10.0 miVariable3.5 mphClear
10:54 PM75.0 °F61.0 °F62 %30.09 in10.0 miVariable3.5 mphClear
11:54 PM75.0 °F61.0 °F62 %30.08 in10.0 miSSW (200°)8.1 mphClear
Hourly data recorded from KDDH, located miles away from Manchester Center, Vermont







STORIES FROM OUR PARTNERS